User: anonymous   Login
Location: Babice
(50.3480°N, 22.9363°E)
Time: 17:29:18
(UTC+00:00)
Language:

Cosmos 1190 Rocket - Orbit

View from above orbital plane
View from above orbital plane
View from above satellite
View from above satellite

Ground track
Ground track

The orbit data is extracted from the following two-line orbital elements,

1 11870U 80056B   20270.92040826 +.00000009 +00000-0 +11702-4 0  9992
2 11870 074.0541 167.9054 0016520 186.8202 173.2729 14.36981976082985
Epoch (UTC): 26 September 2020 22:05:23
Eccentricity: 0.0016520
inclination: 74.0541°
perigee height: 756 km
apogee height: 780 km
right ascension of ascending node: 167.9054°
argument of perigee: 186.8202°
revolutions per day: 14.36981976
mean anomaly at epoch: 173.2729°
orbit number at epoch: 8298

The dashed part of the orbit path shows where the satellite is in the earth's shadow,  

DLR